Location: Newark
(41.8083°N, 72.2500°W)
Time: 11:27:51
(UTC+00:00)

Altair - Pass Details

Date: 08 December 2021
Orbit: 1501 x 1683 km, 47.2° (Epoch: 20 January)

Event Time Altitude Azimuth Distance (km) Brightness Sun altitude
Rises 21:37:32 0° 272° (W) 4,770 11.3 -4.0°
Reaches altitude 10° 21:40:44 10° 276° (W) 3,761 10.6 -4.5°
Maximum altitude 21:50:08 63° 357° (N) 1,677 7.7 -6.1°
Drops below altitude 10° 21:59:16 10° 78° (ENE) 3,659 8.8 -7.7°
Enters shadow 21:59:54 - 79° (E) 3,860 9.0 -7.8°
